{"data":{"norad_id":64544,"intl_designator":"2025-135S","name":"SKYBEE-A02","alt_names":[],"object_type":"PAYLOAD","status":"ACTIVE","operator":null,"country":"GER","launch_date":"2025-06-23","launch_site_code":"AFWTR","launch_vehicle":null,"mission":null,"orbit_class":"UNKNOWN","rcs_meters":null,"size_class":null,"mass_kg":null,"dimensions":null,"purposes":[],"wikipedia_slug":null,"has_3d_model":false,"image_url":null,"decayed_at":null,"tle_current":{"epoch":"2026-09-21T21:17:47.404608Z","epoch_age_seconds":61877,"freshness":"FRESH","line1":"1 64544U 25135S   26264.88735422  .00001784  00000+0  84749-4 0  9993","line2":"2 64544  97.4813  18.8926 0002508 135.6024 224.5413 15.20522624 69529","mean_motion":15.20522624,"eccentricity":0.0002508,"inclination_deg":97.4813,"raan_deg":18.8926,"arg_perigee_deg":135.6024,"mean_anomaly_deg":224.5413,"bstar":8.4749e-5,"rev_number":6952,"period_min":94.704279783212,"perigee_km":502.53700718552,"apogee_km":505.98921908227,"semimajor_km":6882.4001131339,"source":"CELESTRAK","updated_at":"2026-09-22T09:00:29.842193Z"}}}